This is the latest recevied weather packets stored in our database for station/object SQ9NFI-4. If no packets are shown the sender has not sent any weather packets the latest 10 day(s).
| Time | Temp. | Humidity | Pressure | Rain* | Wind** | Luminosity | Snow |
|---|---|---|---|---|---|---|---|
| 1778094278 | 15° C | 74% | 1007.5 hPa | 0 mm | - | 0 W/m² | - |
| 1778093978 | 15° C | 78% | 1007.5 hPa | 0 mm | - | 0 W/m² | - |
| 1778093678 | 15.56° C | 74% | 1007.5 hPa | 0 mm | - | 0 W/m² | - |
| 1778093378 | 15.56° C | 73% | 1007.5 hPa | 0 mm | - | 0 W/m² | - |
| 1778093078 | 16.11° C | 75% | 1006.8 hPa | 0 mm | - | 0 W/m² | - |
| 1778092778 | 16.11° C | 71% | 1006.8 hPa | 0 mm | - | 0 W/m² | - |
| 1778092478 | 16.67° C | 73% | 1006.8 hPa | 0 mm | - | 0 W/m² | - |
| 1778092178 | 17.22° C | 70% | 1006.8 hPa | 0 mm | - | 0 W/m² | - |
| 1778091878 | 17.22° C | 70% | 1006.8 hPa | 0 mm | - | 1 W/m² | - |
| 1778091578 | 17.78° C | 69% | 1006.4 hPa | 0 mm | - | 1 W/m² | - |
| 1778091278 | 18.33° C | 63% | 1006.4 hPa | 0 mm | - | 2 W/m² | - |
| 1778090978 | 18.33° C | 64% | 1006.4 hPa | 0 mm | - | 3 W/m² | - |
| 1778090678 | 19.44° C | 58% | 1006.4 hPa | 0 mm | - | 5 W/m² | - |
| 1778090378 | 19.44° C | 62% | 1006.4 hPa | 0 mm | - | 11 W/m² | - |
| 1778090078 | 20° C | 55% | 1006.4 hPa | 0 mm | - | 19 W/m² | - |
| 1778089778 | 20.56° C | 56% | 1006.4 hPa | 0 mm | - | 21 W/m² | - |
| 1778089478 | 20.56° C | 54% | 1006.8 hPa | 0 mm | - | 28 W/m² | - |
| 1778089178 | 20.56° C | 49% | 1006.8 hPa | 0 mm | - | 29 W/m² | - |
| 1778088878 | 20.56° C | 49% | 1006.8 hPa | 0 mm | - | 24 W/m² | - |
| 1778088578 | 20.56° C | 47% | 1006.8 hPa | 0 mm | - | 23 W/m² | - |
| 1778088278 | 20.56° C | 47% | 1006.8 hPa | 0 mm | - | 26 W/m² | - |
| 1778087978 | 20.56° C | 49% | 1006.8 hPa | 0 mm | - | 33 W/m² | - |
| 1778087678 | 20.56° C | 49% | 1006.8 hPa | 0 mm | - | 31 W/m² | - |
| 1778087378 | 20.56° C | 47% | 1006.8 hPa | 0 mm | - | 32 W/m² | - |
| 1778087078 | 21.11° C | 47% | 1006.8 hPa | 0 mm | - | 32 W/m² | - |
* Rain latest hour (hover to see other rain measurements)
** Current wind speed in m/s (hover to see current wind gust speed)